Location: Noordwijk
(52.2400°N, 4.4500°E)
Time: 22:04:09
(UTC+00:00)

AO-7 - Pass Details

Date: 12 December 2022
Orbit: 1440 x 1459 km, 101.9° (Epoch: 01 February)

Event Time Altitude Azimuth Distance (km) Brightness Sun altitude
Rises 16:25:18 0° 194° (SSW) 4,524 ? -8.0°
Reaches altitude 10° 16:28:28 10° 204° (SSW) 3,549 ? -8.4°
Maximum altitude 16:35:42 33° 266° (W) 2,247 ? -9.4°
Drops below altitude 10° 16:42:59 10° 327° (NNW) 3,565 ? -10.4°
Sets 16:46:12 0° 338° (NNW) 4,547 ? -10.9°
